Weather in Bergin

Russia / Republic of Kalmykia     46°50′40″N   46°56′12″E
temp.,
°C
wind,
m/s
gust,
m/s
humid.,
%
clouds,
%
prec.,
mm/h
press.,
hPa
HPBL,
m
10 august, wed
wed1000:00+28nne22253 0.0 101411
03:00+26n22284 0.0 101411
06:00+26e34340 0.0 1014140
09:00+32e56260 0.0 1014965
12:00+36ese57190 0.0 10133308
15:00+37se88164 0.0 10113803
18:00+34se98200 0.0 10122185
21:00+29se47270 0.0 1013149
11 august, thu
thu1100:00+26ese47310 0.0 1012143
03:00+25e47360 0.0 1012123
06:00+26e614360 0.0 1012358
09:00+34ese91124100 0.0 10131211
12:00+37se10111597 0.0 10123433
15:00+37se1010150 0.0 10123288
18:00+35se89160 0.0 10122495
21:00+30se49245 0.0 1013189
12 august, fri
fri1200:00+28ese472811 0.0 1013110
03:00+26ene583361 0.0 1013137
06:00+27e510315 0.0 1014214
09:00+35ese68205 0.0 1014947
12:00+38se681696 0.0 10143559
15:00+37sse971575 0.0 10132035
18:00+34sse792086 0.0 1014781
21:00+30sse352789 0.0 101582
13 august, sat
sat1300:00+27se113374 0.0 101511
03:00+27e453013 0.0 101572
06:00+27ene4103070 0.0 1015230
09:00+35e8101718 0.0 10141753
12:00+38se8101499 0.0 10133666
15:00+38se991393 0.0 10123751
18:00+36se891521 0.0 10121632
21:00+30sse34254 0.0 101360
14 august, sun
sun1400:00+29ene45241 0.0 101263
03:00+27ene59270 0.0 1012149
06:00+27e612310 0.0 1012297
09:00+34e810200 0.0 1012898
12:00+38ese89140 0.0 10113706
15:00+39se99142 0.0 10103921
18:00+36se77160 0.0 10101476
21:00+30ese47230 0.0 1011117